Theta_e
312 314 318 320 320 322 323 325 326 327 326 326 326 326 326 326 325 324 325 324 324 325 326 328 328 325 324 325 324 325 327 332 328 327 328 328 328 329 331 331 329 329 330 329
315 316 318 319 320 321 322 324 325 326 326 326 326 325 325 325 325 324 324 324 325 326 325 329 330 325 324 324 324 327 333 326 326 328 328 328 329 330 330 331 332 331 329 328
316 316 317 318 319 320 321 322 323 323 323 324 324 324 324 324 324 323 323 324 326 325 324 329 330 328 325 324 326 329 330 325 327 329 329 326 326 329 330 331 332 332 330 328
315 317 317 318 319 320 321 320 320 321 322 323 323 325 325 325 325 325 324 324 325 325 328 329 331 330 330 329 330 332 328 325 324 322 328 329 328 328 330 331 331 330 328 328
315 315 316 318 319 319 320 318 319 320 321 322 322 323 323 324 325 325 326 326 326 325 329 330 330 330 330 330 331 332 328 323 323 322 329 326 330 330 331 330 330 329 328 328
314 315 316 317 318 318 319 319 319 320 321 322 322 323 324 325 326 326 327 325 325 329 330 330 330 330 330 330 331 331 328 329 324 322 329 331 333 332 330 330 330 330 328 325
315 314 315 316 318 318 318 320 322 324 324 324 323 323 324 327 327 326 326 328 330 331 330 330 330 329 330 330 330 331 331 330 328 330 330 332 333 331 331 330 330 330 330 326
314 317 315 316 317 318 319 321 321 322 323 323 324 324 325 325 325 326 324 325 329 331 331 330 330 330 330 330 330 330 331 330 330 329 331 332 331 330 330 328 328 329 328 327
316 318 316 316 316 319 320 321 322 321 323 324 325 326 327 326 327 326 328 327 329 331 331 330 330 330 329 330 330 330 330 329 329 329 332 332 332 330 327 324 324 329 326 327
317 320 318 315 316 318 321 321 322 321 323 323 322 325 329 328 327 327 327 330 330 331 330 330 329 329 330 330 331 331 330 328 329 331 332 332 329 330 327 327 327 329 327 327
315 318 319 316 316 318 320 322 321 322 321 323 323 323 324 327 328 330 331 331 331 331 330 329 329 330 330 331 331 331 329 328 329 331 331 331 331 331 329 329 327 328 328 327
314 319 321 317 317 318 319 321 322 322 322 321 321 322 326 328 329 329 330 331 331 330 329 329 329 329 330 331 330 329 327 327 329 330 331 331 330 331 328 329 328 326 327 327
312 318 321 320 318 318 319 318 320 322 323 324 321 322 324 328 330 329 331 330 331 330 329 329 329 329 329 330 329 327 326 327 328 330 330 331 330 330 329 329 328 327 326 326
312 317 320 320 319 319 319 319 320 322 322 322 322 320 323 328 328 329 330 330 330 330 329 329 329 329 329 329 327 325 326 326 327 329 329 331 330 330 330 329 328 327 326 326
312 316 318 318 317 318 320 319 320 321 322 322 321 322 322 326 326 327 327 329 330 330 330 329 329 329 329 328 326 324 326 326 326 328 329 330 331 331 329 329 328 327 327 328
313 317 317 318 317 317 319 319 319 320 321 321 320 322 323 323 323 324 327 329 331 330 330 329 329 330 329 327 325 323 325 325 326 328 329 330 330 329 329 328 328 329 329 329
314 316 317 318 317 318 319 319 319 319 320 321 321 322 322 323 322 324 326 329 330 331 330 330 329 330 329 327 324 323 325 324 326 328 329 330 329 328 328 328 329 329 329 330
311 315 318 317 318 320 324 322 321 320 322 322 321 321 322 324 323 323 325 324 327 331 331 330 330 330 329 326 324 323 325 323 325 327 329 329 328 329 329 329 329 329 330 330
310 313 316 321 320 321 323 322 323 324 323 321 323 323 323 322 322 324 326 328 327 330 331 331 330 331 329 325 324 323 324 323 324 326 329 329 329 329 330 330 331 331 330 330
312 313 316 320 320 323 324 319 318 323 327 320 321 323 323 323 324 327 324 324 328 331 332 331 331 331 328 325 324 324 324 323 323 325 328 329 329 329 329 329 328 329 330 330
317 315 316 320 324 324 318 319 319 328 325 319 319 321 322 325 325 323 323 324 326 330 331 332 331 331 328 326 325 324 324 323 323 323 327 329 330 329 330 331 323 326 328 328
317 318 316 318 323 325 316 318 323 318 318 318 318 319 320 321 322 323 324 325 325 329 331 332 332 331 328 326 325 324 324 323 323 323 325 327 329 329 330 331 328 327 326 329
317 313 317 315 317 315 315 314 314 315 316 316 317 317 319 321 323 323 325 326 326 328 330 332 332 331 328 326 324 324 325 323 323 323 323 325 327 329 330 329 329 327 326 326
312 310 313 312 313 314 312 313 312 313 313 314 315 316 318 320 323 324 325 326 329 328 330 331 331 331 328 326 325 324 325 323 322 324 324 324 325 329 329 328 328 327 325 324
312 312 312 312 313 313 312 312 311 311 311 312 314 316 317 320 322 323 326 328 329 329 329 331 331 331 329 326 325 324 324 323 323 324 324 324 323 324 330 328 329 327 327 324
309 311 312 313 312 312 312 311 311 311 311 312 313 315 316 318 321 322 325 330 331 331 328 331 331 331 329 325 325 325 324 323 324 324 324 323 321 322 325 329 329 328 328 325
Wind_Speed
29 20 28 41 32 26 25 27 30 26 23 26 27 29 29 32 26 28 33 28 32 32 31 23 21 18 16 16 18 19 24 29 31 29 24 19 15 12 10 9 13 13 12 13
20 30 44 28 29 27 27 29 30 26 23 23 23 26 27 24 25 33 35 33 30 28 24 17 15 12 12 12 13 18 22 27 28 23 19 14 13 10 9 9 10 10 11 12
35 43 26 31 29 31 31 30 26 26 19 20 22 27 27 27 35 37 33 30 26 27 27 17 11 8 9 11 15 19 24 27 25 20 18 14 11 8 6 8 8 8 8 10
32 33 26 33 34 32 32 25 23 20 19 21 18 22 24 21 25 24 29 31 30 25 19 13 11 9 11 13 16 20 24 27 24 20 14 12 8 7 8 7 8 7 7 7
33 23 36 30 39 28 27 14 19 21 19 20 23 15 21 22 22 21 21 28 25 19 11 11 11 12 13 16 20 23 25 25 22 19 13 9 7 6 5 5 6 7 7 5
28 16 22 40 21 27 19 14 18 16 14 18 21 19 18 20 24 21 13 14 13 10 8 11 13 16 17 20 23 25 25 21 18 15 12 10 7 6 5 5 7 7 9 6
23 27 22 18 27 22 23 21 10 11 11 12 16 14 21 20 17 14 12 6 8 8 13 16 18 20 22 25 25 24 21 19 16 14 11 9 5 4 3 4 6 6 6 6
22 21 31 25 29 22 29 25 12 16 12 13 18 10 12 11 14 13 15 12 3 8 14 18 19 21 25 26 24 22 20 18 15 13 12 8 5 3 2 2 3 2 5 7
13 26 30 21 26 28 32 23 23 10 3 6 8 10 12 20 19 12 6 11 9 11 16 19 20 23 24 25 23 21 19 16 14 13 12 9 6 5 3 1 3 4 8 8
9 13 22 31 24 27 29 24 20 13 15 13 8 11 8 5 5 9 10 8 13 17 18 21 23 24 23 22 20 19 17 15 14 14 11 9 6 4 1 2 4 7 9 9
11 8 21 28 24 26 17 22 20 14 10 10 4 5 10 12 4 1 6 10 18 21 22 23 24 24 23 21 19 19 16 15 15 13 11 9 7 4 3 3 5 7 8 8
5 6 11 27 25 23 24 20 22 14 18 11 5 5 4 1 3 4 3 12 18 23 24 26 25 24 23 21 20 19 16 15 15 12 11 8 6 5 4 5 6 7 8 8
3 9 9 19 21 22 26 24 21 16 9 17 13 5 10 4 8 6 7 14 21 24 25 26 25 25 23 21 20 18 16 15 14 12 9 7 6 4 4 6 6 8 8 7
6 9 13 9 17 13 25 26 26 21 10 13 17 9 9 10 7 9 8 15 19 22 26 27 25 24 22 21 20 17 17 15 14 12 9 6 4 5 6 8 8 8 8 7
4 15 18 14 4 5 15 26 23 25 18 16 12 18 18 8 3 10 6 12 18 21 23 25 26 25 23 22 20 18 17 15 14 12 10 7 5 5 8 9 10 9 8 8
5 6 14 17 12 5 5 24 23 22 23 16 11 15 11 8 5 8 4 9 17 20 22 24 26 25 24 23 21 19 17 16 15 13 11 8 7 9 10 12 12 11 9 9
5 4 10 19 14 5 6 13 19 21 21 19 19 18 13 10 10 10 10 4 14 18 23 26 27 26 24 23 22 21 19 18 16 15 13 10 10 12 12 13 13 11 10 9
8 9 5 14 15 13 10 3 7 12 2 4 9 13 7 7 11 15 17 17 11 18 21 26 27 26 24 23 22 21 20 20 18 16 14 12 13 13 13 12 12 11 9 8
10 3 5 7 14 10 9 6 1 9 5 6 4 7 11 13 13 7 11 10 9 16 19 21 24 27 26 25 24 23 22 21 19 18 17 15 15 14 13 12 11 10 10 8
6 10 5 9 17 10 10 7 4 3 6 7 7 7 10 12 6 3 14 12 7 11 18 20 24 26 27 27 26 24 24 23 21 20 19 17 15 15 13 11 10 10 10 9
4 3 8 8 7 7 9 10 10 9 4 8 8 9 10 7 10 24 19 12 8 9 17 22 26 28 27 29 28 26 25 24 22 20 20 20 17 16 13 11 9 9 10 9
1 1 5 5 4 6 12 2 2 6 5 8 10 11 12 13 14 16 15 12 9 6 18 24 27 28 27 30 29 27 26 24 23 22 21 21 19 16 14 12 10 9 9 10
1 3 2 4 3 5 9 13 11 9 8 10 12 13 14 14 14 14 14 11 8 6 18 24 27 28 28 29 30 29 26 26 25 23 22 21 20 17 17 15 13 10 10 9
2 4 2 2 6 8 12 11 14 13 14 13 13 14 15 17 17 15 14 11 7 6 19 24 27 30 31 29 30 27 27 27 27 25 24 22 21 20 18 16 14 12 11 11
6 5 5 1 8 4 9 15 19 16 16 16 16 14 16 16 18 18 16 12 7 6 16 24 29 31 31 29 29 28 28 29 28 26 25 23 22 23 20 19 16 15 13 12
7 5 4 2 6 9 13 16 16 20 20 19 19 19 17 16 18 20 18 14 8 7 13 22 26 29 31 30 30 30 30 30 29 28 27 25 23 22 21 21 19 20 17 16
Wind_Direction
198 204 217 216 219 234 249 250 247 245 235 246 252 262 274 274 278 270 276 280 280 286 288 279 271 270 248 242 225 208 201 197 195 197 192 197 208 219 229 244 261 272 268 263
194 216 220 219 222 225 235 240 247 258 260 267 277 275 273 273 274 276 274 272 273 272 280 278 269 253 238 219 201 192 187 193 188 186 181 192 199 217 226 244 256 263 261 261
213 223 217 218 219 224 226 235 244 256 272 262 255 267 271 265 261 263 265 260 261 266 279 269 244 223 210 195 186 181 180 184 178 176 181 187 195 210 242 257 260 259 251 256
230 231 218 222 223 218 231 225 245 255 254 256 251 275 274 281 276 268 266 264 264 266 260 244 215 192 180 174 168 168 173 174 178 181 178 181 195 218 234 231 241 247 242 246
224 219 229 220 223 219 234 232 235 238 251 267 260 262 274 263 268 260 258 257 250 246 244 211 190 176 164 157 157 161 166 171 180 176 172 175 186 223 227 233 234 237 239 223
243 222 222 230 220 220 220 214 225 236 245 250 251 250 267 266 261 267 268 247 219 190 181 165 159 153 151 148 151 156 163 168 173 175 169 167 187 199 218 242 253 254 248 227
230 237 245 226 208 201 193 191 194 216 220 245 248 242 249 277 281 261 259 205 155 168 160 153 153 152 149 152 155 157 159 160 166 166 167 171 176 187 220 242 271 249 237 191
224 225 220 207 210 185 192 188 205 216 229 241 217 242 242 275 274 276 241 224 187 162 149 147 151 150 152 154 157 156 158 160 165 168 169 170 165 185 206 268 237 237 193 151
234 231 186 215 210 198 189 207 211 241 207 260 213 237 268 260 259 256 229 211 192 163 152 148 149 150 153 155 156 158 158 162 165 169 170 168 159 165 192 302 108 145 154 166
272 263 211 200 201 205 193 193 201 213 224 233 236 251 256 302 197 226 233 196 170 157 150 148 150 152 155 154 156 157 159 164 168 170 170 172 170 154 103 82 135 147 156 162
273 256 206 185 198 187 191 196 209 197 235 197 233 224 258 254 296 166 163 161 160 155 152 152 154 155 154 154 158 158 161 166 170 171 172 175 175 158 139 133 141 155 164 170
302 296 276 191 199 212 202 188 193 195 193 233 262 269 161 59 271 337 202 151 156 155 154 154 157 156 156 158 160 162 165 170 171 169 171 181 179 180 167 148 150 159 168 168
328 233 220 197 188 207 197 201 194 209 198 205 208 235 214 73 76 48 120 148 154 152 154 155 158 160 159 162 164 166 168 170 169 169 172 179 186 185 160 151 154 166 172 170
256 258 252 201 178 196 198 198 192 202 202 200 215 221 213 160 76 49 92 154 158 159 158 158 161 163 163 166 167 168 169 170 168 167 171 173 174 168 149 149 147 157 166 164
281 233 234 261 342 308 227 200 194 198 215 220 195 228 245 211 38 23 17 164 163 162 167 164 165 165 165 168 169 170 171 170 168 166 165 162 156 147 145 142 143 150 153 151
313 263 251 250 227 251 290 196 200 203 214 223 226 243 243 255 275 318 359 195 182 172 174 172 170 168 170 171 171 172 171 171 166 163 163 152 146 145 144 141 138 138 143 144
303 308 231 231 205 228 221 204 200 209 217 221 225 234 272 294 306 314 345 293 210 186 179 179 177 171 172 173 172 172 170 168 167 163 163 154 147 147 141 140 138 141 145 145
264 313 267 224 197 209 93 58 227 203 40 302 279 273 305 320 308 307 290 269 250 203 193 183 180 173 172 173 173 171 171 169 168 166 164 157 150 149 147 145 145 145 149 148
221 255 273 200 202 152 147 55 24 195 94 21 337 299 306 311 308 268 21 3 267 211 198 196 185 174 170 174 174 172 173 172 172 169 167 161 159 153 147 146 146 153 154 149
243 240 271 211 194 191 60 342 271 239 158 32 344 328 332 332 259 131 0 352 341 193 192 193 186 179 171 174 175 174 176 176 176 173 172 168 162 159 152 144 139 147 152 152
183 188 218 253 198 105 0 347 159 203 73 1 349 343 337 320 320 310 317 320 307 227 200 189 185 185 177 174 175 177 179 181 179 176 175 174 172 168 166 155 139 142 143 152
42 206 182 251 218 134 353 73 321 31 360 359 352 352 341 321 313 311 313 308 299 240 195 190 185 184 182 178 178 179 183 180 179 178 178 179 180 178 183 174 163 149 151 149
105 4 40 2 48 22 72 67 53 28 3 2 348 347 342 340 332 324 321 311 287 248 197 190 187 184 184 185 182 182 183 180 180 181 182 183 184 181 186 179 176 167 159 158
39 16 34 276 342 77 61 48 25 11 358 353 348 348 348 346 346 339 333 320 297 247 200 193 189 188 184 188 188 187 182 180 182 183 185 186 186 186 187 188 189 183 178 176
359 344 353 8 20 180 36 6 356 355 356 353 353 348 351 352 355 349 342 327 297 257 205 198 195 192 188 185 191 188 185 182 184 185 186 187 189 191 192 191 194 192 194 187
357 4 8 3 348 317 323 337 345 342 343 345 344 342 350 355 354 356 351 342 313 267 215 205 200 194 191 188 188 189 187 187 186 186 189 191 191 194 197 197 200 194 196 197